Weather History for Harlan, IA

Change the Weather History Date:

Saturday, January 19, 2013

  Actual Average Record
Temperature  
Mean Temperature 32 °F -  
Max Temperature 48 °F 31 °F 60 °F (2014)
Min Temperature 17 °F 10 °F -27 °F (1970)
Degree Days  
Heating Degree Days 32    
Moisture  
Dew Point 25 °F    
Average Humidity 68    
Maximum Humidity 93    
Minimum Humidity 43    
Precipitation  
Precipitation 0.00 in - - ()
Sea Level Pressure  
Sea Level Pressure 30.05 in    
Wind  
Wind Speed 11 mph (WNW)    
Max Wind Speed 26 mph    
Max Gust Speed 38 mph    
Visibility 10 miles    
Events      
Averages and records for this station are not official NWS values.
T = Trace of Precipitation, MM = Missing Value Source: NWS Daily Summary

Daily Weather History Graph

Daily Weather History Graph

Search for Another Location

Airport:

Trip Planner

Search our weather history database for the weather conditions in past years. The results will help you decide how hot, cold, wet, or windy it might be!

Date:

Astronomy

Jan. 19, 2013 Rise Set
Actual Time 7:43 AM CST 5:21 PM CST
Civil Twilight 7:13 AM CST 5:51 PM CST
Nautical Twilight 6:39 AM CST 6:25 PM CST
Astronomical Twilight 6:06 AM CST 6:58 PM CST
Moon 11:48 AM CST (1/19) 1:17 AM CST (1/19)
Length of Visible Light 10h 38m
Length of Day
9h 37m
First Quarter, 57% of the Moon is Illuminated
Jan 19
First Quarter
Jan 26
Full
Feb 3
Last Quarter
Feb 10
New
Feb 17
First Quarter

Hourly Weather History & Observations

Time (CST) Temp. Windchill Dew Point Humidity Pressure Visibility Wind Dir Wind Speed Gust Speed Precip Events Conditions
12:15 AM 32.0 °F 26.4 °F 28.4 °F 87% 29.91 in 10.0 mi SSW 5.8 mph - N/A   Clear
12:35 AM 30.2 °F 24.3 °F 28.4 °F 93% 29.91 in 10.0 mi SSW 5.8 mph - N/A   Clear
12:55 AM 30.2 °F 22.6 °F 28.4 °F 93% 29.91 in 10.0 mi SSW 8.1 mph - N/A   Clear
1:15 AM 30.2 °F 22.6 °F 28.4 °F 93% 29.90 in 10.0 mi SSW 8.1 mph - N/A   Clear
1:35 AM 30.2 °F 23.4 °F 28.4 °F 93% 29.90 in 10.0 mi South 6.9 mph - N/A   Clear
1:55 AM 30.2 °F 21.9 °F 26.6 °F 86% 29.91 in 10.0 mi SSW 9.2 mph - N/A   Clear
2:15 AM 30.2 °F 22.6 °F 26.6 °F 86% 29.90 in 10.0 mi South 8.1 mph - N/A   Clear
2:35 AM 30.2 °F 23.4 °F 26.6 °F 86% 29.90 in 10.0 mi South 6.9 mph - N/A   Clear
2:55 AM 28.4 °F - 26.6 °F 93% 29.90 in 10.0 mi Calm Calm - N/A   Clear
3:15 AM 28.4 °F - 26.6 °F 93% 29.89 in 10.0 mi Calm Calm - N/A   Clear
3:35 AM 30.2 °F 21.9 °F 28.4 °F 93% 29.90 in 10.0 mi SSW 9.2 mph - N/A   Clear
3:55 AM 28.4 °F 23.3 °F 26.6 °F 93% 29.90 in 10.0 mi SSE 4.6 mph - N/A   Clear
4:15 AM 30.2 °F 26.7 °F 26.6 °F 86% 29.89 in 10.0 mi South 3.5 mph - N/A   Clear
4:35 AM 30.2 °F 25.4 °F 26.6 °F 86% 29.89 in 10.0 mi South 4.6 mph - N/A   Clear
4:55 AM 28.4 °F 22.2 °F 26.6 °F 93% 29.88 in 10.0 mi South 5.8 mph - N/A   Clear
5:15 AM 28.4 °F 22.2 °F 26.6 °F 93% 29.87 in 10.0 mi South 5.8 mph - N/A   Clear
5:35 AM 28.4 °F 22.2 °F 26.6 °F 93% 29.88 in 10.0 mi SSW 5.8 mph - N/A   Clear
5:55 AM 30.2 °F 25.4 °F 26.6 °F 86% 29.87 in 10.0 mi SSE 4.6 mph - N/A   Clear
7:15 AM 30.2 °F 26.7 °F 28.4 °F 93% 29.89 in 10.0 mi South 3.5 mph - N/A   Mostly Cloudy
7:55 AM 30.2 °F - 26.6 °F 86% 29.90 in 10.0 mi Calm Calm - N/A   Clear
8:35 AM 30.2 °F - 26.6 °F 86% 29.93 in 10.0 mi Calm Calm - N/A   Clear
9:35 AM 37.4 °F 30.3 °F 28.4 °F 70% 29.96 in 10.0 mi West 10.4 mph - N/A   Clear
9:55 AM 39.2 °F 32.0 °F 28.4 °F 65% 29.96 in 10.0 mi West 11.5 mph - N/A   Clear
10:15 AM 42.8 °F 35.4 °F 28.4 °F 57% 29.97 in 10.0 mi West 15.0 mph - N/A   Clear
10:35 AM 42.8 °F 35.4 °F 28.4 °F 57% 29.98 in 10.0 mi West 15.0 mph - N/A   Clear
10:55 AM 44.6 °F 37.2 °F 26.6 °F 49% 29.97 in 10.0 mi WNW 17.3 mph 21.9 mph N/A   Clear
11:15 AM 46.4 °F 39.2 °F 26.6 °F 46% 29.97 in 10.0 mi WNW 18.4 mph 24.2 mph N/A   Clear
11:35 AM 46.4 °F 39.0 °F 26.6 °F 46% 29.96 in 10.0 mi WNW 19.6 mph - N/A   Clear
11:55 AM 48.2 °F - 26.6 °F 43% 29.96 in 10.0 mi WNW 24.2 mph 29.9 mph N/A   Clear
12:15 PM 48.2 °F - 26.6 °F 43% 29.96 in 10.0 mi WNW 25.3 mph 32.2 mph N/A   Clear
12:35 PM 48.2 °F - 26.6 °F 43% 29.97 in 10.0 mi WNW 26.5 mph 29.9 mph N/A   Clear
12:55 PM 48.2 °F - 26.6 °F 43% 29.97 in 10.0 mi WNW 24.2 mph 33.4 mph N/A   Clear
1:15 PM 48.2 °F - 26.6 °F 43% 29.98 in 10.0 mi WNW 21.9 mph 31.1 mph N/A   Clear
1:35 PM 48.2 °F - 28.4 °F 46% 29.98 in 10.0 mi NW 24.2 mph 28.8 mph N/A   Clear
1:55 PM 48.2 °F - 28.4 °F 46% 29.98 in 10.0 mi NW 19.6 mph 26.5 mph N/A   Clear
2:15 PM 48.2 °F - 28.4 °F 46% 29.99 in 10.0 mi NW 23.0 mph 27.6 mph N/A   Clear
2:35 PM 48.2 °F - 28.4 °F 46% 30.00 in 10.0 mi NW 18.4 mph 28.8 mph N/A   Clear
2:55 PM 48.2 °F - 28.4 °F 46% 30.02 in 10.0 mi NW 19.6 mph 29.9 mph N/A   Clear
3:15 PM 48.2 °F - 28.4 °F 46% 30.04 in 10.0 mi NW 21.9 mph 27.6 mph N/A   Clear
3:35 PM 48.2 °F - 28.4 °F 46% 30.05 in 10.0 mi NW 21.9 mph 32.2 mph N/A   Clear
3:55 PM 46.4 °F 39.0 °F 28.4 °F 50% 30.07 in 10.0 mi NW 19.6 mph 31.1 mph N/A   Clear
4:15 PM 46.4 °F 38.1 °F 28.4 °F 50% 30.09 in 10.0 mi NW 24.2 mph 34.5 mph N/A   Clear
4:35 PM 44.6 °F 36.4 °F 28.4 °F 53% 30.10 in 10.0 mi NW 20.7 mph 26.5 mph N/A   Clear
4:55 PM 44.6 °F 38.4 °F 30.2 °F 57% 30.11 in 10.0 mi NW 12.7 mph - N/A   Clear
5:15 PM 42.8 °F 35.8 °F 30.2 °F 61% 30.11 in 10.0 mi NW 13.8 mph - N/A   Clear
5:35 PM 39.2 °F 31.2 °F 28.4 °F 65% 30.13 in 10.0 mi WNW 13.8 mph - N/A   Clear
5:55 PM 39.2 °F 32.0 °F 28.4 °F 65% 30.14 in 10.0 mi NW 11.5 mph - N/A   Clear
6:15 PM 37.4 °F 30.3 °F 28.4 °F 70% 30.15 in 10.0 mi NW 10.4 mph - N/A   Clear
6:35 PM 37.4 °F 29.8 °F 28.4 °F 70% 30.16 in 10.0 mi NW 11.5 mph - N/A   Clear
6:55 PM 35.6 °F 28.0 °F 30.2 °F 81% 30.18 in 10.0 mi NW 10.4 mph - N/A   Scattered Clouds
7:15 PM 37.4 °F 25.9 °F 30.2 °F 75% 30.20 in 10.0 mi NNW 25.3 mph 31.1 mph N/A   Scattered Clouds
7:35 PM 35.6 °F 24.2 °F 28.4 °F 75% 30.21 in 10.0 mi NNW 21.9 mph 31.1 mph N/A   Scattered Clouds
7:55 PM 33.8 °F 21.0 °F 21.2 °F 60% 30.22 in 10.0 mi NNW 25.3 mph 34.5 mph N/A   Scattered Clouds
8:15 PM 32.0 °F 19.2 °F 17.6 °F 55% 30.23 in 10.0 mi NNW 23.0 mph 32.2 mph N/A   Clear
8:35 PM 28.4 °F 13.8 °F 14.0 °F 55% 30.25 in 10.0 mi NNW 25.3 mph 38.0 mph N/A   Clear
8:55 PM 28.4 °F 14.7 °F 15.8 °F 59% 30.26 in 10.0 mi NNW 21.9 mph 32.2 mph N/A   Clear
9:15 PM 24.8 °F 9.3 °F 12.2 °F 59% 30.28 in 10.0 mi NNW 24.2 mph 32.2 mph N/A   Clear
9:35 PM 23.0 °F 7.2 °F 10.4 °F 59% 30.30 in 10.0 mi NNW 23.0 mph 29.9 mph N/A   Clear
9:55 PM 21.2 °F 5.2 °F 8.6 °F 58% 30.31 in 10.0 mi North 21.9 mph 31.1 mph N/A   Clear
10:15 PM 21.2 °F 8.3 °F 10.4 °F 63% 30.32 in 10.0 mi North 13.8 mph 26.5 mph N/A   Clear
10:35 PM 19.4 °F 2.1 °F 8.6 °F 63% 30.33 in 10.0 mi NNW 24.2 mph - N/A   Clear
10:55 PM 19.4 °F 4.5 °F 8.6 °F 63% 30.34 in 10.0 mi North 17.3 mph 25.3 mph N/A   Clear
11:15 PM 17.6 °F 2.7 °F 8.6 °F 68% 30.34 in 10.0 mi North 16.1 mph 24.2 mph N/A   Clear
11:35 PM 17.6 °F 3.2 °F 8.6 °F 68% 30.34 in 10.0 mi North 15.0 mph 23.0 mph N/A   Clear
11:55 PM 17.6 °F 6.4 °F 8.6 °F 68% 30.35 in 10.0 mi North 9.2 mph - N/A   Clear